Location: Red Bud (historical)
(37.7759°N, 88.4053°W)
Time: 23:58:55
(UTC+00:00)

Cosmos 2369 - Pass Details

Date: 29 October 2020
Orbit: 841 x 854 km, 71.0° (Epoch: 28 November)

Event Time Altitude Azimuth Distance (km) Brightness Sun altitude
Rises 23:29:15 0° 177° (S) 3,406 7.0 -6.9°
Reaches altitude 10° 23:31:51 10° 169° (S) 2,474 6.2 -7.4°
Maximum altitude 23:37:00 36° 104° (ESE) 1,316 4.3 -8.4°
Drops below altitude 10° 23:42:09 10° 40° (NE) 2,482 5.7 -9.4°
Sets 23:44:46 0° 32° (NNE) 3,419 6.5 -9.9°
